Regional Weather Roundup
Issued by NWS

Home | Current Version | Previous Version | Graphics & Text | Print | Product List | Glossary On
Versions: 1 2 3 4 5 6 7 8 9 10 11 12 13 14 15 16 17 18 19 20 21 22 23 24 25 26 27 28 29 30 31 32 33 34 35 36 37 38 39 40 41 42 43 44 45 46 47 48 49 50
000
ASUS43 KFSD 270402
RWRSD

WEATHER ROUNDUP FOR SOUTH DAKOTA
NATIONAL WEATHER SERVICE SIOUX FALLS SD
1000 PM CST WED NOV 26 2014

NOTE: "FAIR" INDICATES FEW OR NO CLOUDS BELOW 12,000 FEET WITH NO
SIGNIFICANT WEATHER AND/OR OBSTRUCTIONS TO VISIBILITY.


SDZ001>005-009-010-012>017-270500-
NORTHWEST AND NORTH CENTRAL SOUTH DAKOTA

CITY           SKY/WX    TMP DP  RH WIND       PRES   REMARKS
BUFFALO          N/A     21  17  84 SE6       30.22F WCI  13
FAITH            N/A     16  12  84 E8        30.34R WCI   5
MOBRIDGE       PTCLDY     3  -2  79 E12       30.42R WCI -13
$$

SDZ012>016-024>037-041>051-057-063-072>074-270500-
SOUTHWEST AND SOUTH CENTRAL SOUTH DAKOTA

CITY           SKY/WX    TMP DP  RH WIND       PRES   REMARKS
RAPID CTY ARPT CLOUDY    28  24  85 E6        30.28R WCI  22
PIERRE         CLOUDY    14   8  77 E8        30.43R WCI   3
CUSTER         CLOUDY    23  19  85 W3        30.17R
ELLSWORTH AFB  CLOUDY    27  25  93 E7        30.26  WCI  19
PHILIP         CLOUDY    18  12  77 E14       30.37R WCI   4
PINE RIDGE     CLOUDY    29  25  85 CALM      30.27F
WINNER         CLOUDY    19  10  68 E8        30.40R WCI   9
$$

SDZ004>011-016>023-039-040-270500-
NORTHEAST SOUTH DAKOTA

CITY           SKY/WX    TMP DP  RH WIND       PRES   REMARKS
ABERDEEN       PTCLDY    -4  -9  79 N7        30.51R WCI -18
WATERTOWN      CLEAR     -3  -8  79 NW7       30.42R WCI -16
SISSETON         N/A     -7 -11  83 N9        30.50R WCI -24
$$

SDZ017-020-022-023-036>040-048>070-270500-
SOUTHEAST SOUTH DAKOTA

CITY           SKY/WX    TMP DP  RH WIND       PRES   REMARKS
SIOUX FALLS    PTCLDY     8   0  69 N7        30.43R WCI  -3
HURON          CLEAR      3  -2  79 N5        30.50R WCI  -6
MITCHELL       CLOUDY    10   3  73 N12       30.49R WCI  -5
YANKTON        CLOUDY    12   5  73 NW9       30.47S WCI   0
$$

ABBREVIATIONS USED IN REMARKS
   TC - TEMPERATURE IN CELSIUS
  WCI - WIND CHILL INDEX
   HX - HEAT INDEX
  VSB - VISIBILITY



USA.gov is the U.S. government's official web portal to all federal, state and local government web resources and services.